AAL1054 KMIA-KMCO

Flight info

Callsign AAL1054
Flight time 0h 45m
Altitude 20000
Route FLMGO2 WAPOM MUNGI1
Aircraft B738/M-SDE2E3FGHIRWXY/LB1

Departure

Time 2026-05-06 02:51
Airport Miami International Airport (KMIA)

Arrival

Time 2026-05-06 03:36
Airport Orlando International Airport (KMCO)
Time Latitude Longitude Altitude Speed Heading
2026-05-06 02:22 25.79824 -80.28321 9 ft 0 kts 177°
2026-05-06 02:41 25.79827 -80.28321 14 ft 3 kts 178°
2026-05-06 02:41 25.79852 -80.28319 17 ft 4 kts 198°
2026-05-06 02:41 25.79875 -80.28305 16 ft 4 kts 229°
2026-05-06 02:41 25.79888 -80.28280 15 ft 4 kts 256°
2026-05-06 02:42 25.79891 -80.28262 14 ft 0 kts 267°
2026-05-06 02:44 25.79889 -80.28292 14 ft 9 kts 266°
2026-05-06 02:44 25.79884 -80.28388 14 ft 11 kts 267°
2026-05-06 02:44 25.79940 -80.28461 14 ft 15 kts 298°
2026-05-06 02:45 25.79940 -80.28612 14 ft 21 kts 267°
2026-05-06 02:45 25.79935 -80.28751 15 ft 19 kts 268°
2026-05-06 02:45 25.79929 -80.28909 15 ft 21 kts 267°
2026-05-06 02:45 25.79921 -80.29081 14 ft 23 kts 267°
2026-05-06 02:46 25.79914 -80.29269 14 ft 25 kts 268°
2026-05-06 02:46 25.79907 -80.29446 14 ft 23 kts 267°
2026-05-06 02:46 25.79899 -80.29619 14 ft 22 kts 267°
2026-05-06 02:46 25.79893 -80.29768 13 ft 17 kts 267°
2026-05-06 02:47 25.79888 -80.29895 13 ft 15 kts 274°
2026-05-06 02:47 25.79905 -80.29969 13 ft 0 kts 286°
2026-05-06 02:47 25.79906 -80.29969 13 ft 0 kts 286°
2026-05-06 02:48 25.79913 -80.29990 13 ft 7 kts 298°
2026-05-06 02:48 25.79968 -80.30068 13 ft 17 kts 302°
2026-05-06 02:48 25.80048 -80.30129 13 ft 15 kts 15°
2026-05-06 02:48 25.80077 -80.30029 12 ft 13 kts 89°
2026-05-06 02:49 25.80079 -80.29996 12 ft 0 kts 86°
2026-05-06 02:50 25.80080 -80.29969 12 ft 12 kts 86°
2026-05-06 02:50 25.80092 -80.29684 13 ft 81 kts 87°
2026-05-06 02:51 25.80133 -80.28699 16 ft 170 kts 87°
2026-05-06 02:51 25.80177 -80.27165 378 ft 212 kts 88°
2026-05-06 02:51 25.80235 -80.25489 1370 ft 226 kts 87°
2026-05-06 02:51 25.80319 -80.23724 2393 ft 229 kts 87°
2026-05-06 02:52 25.80406 -80.21959 3233 ft 233 kts 87°
2026-05-06 02:52 25.80488 -80.20106 3669 ft 249 kts 87°
2026-05-06 02:52 25.80804 -80.18145 3992 ft 268 kts 65°
2026-05-06 02:52 25.81970 -80.16519 4729 ft 274 kts 33°
2026-05-06 02:53 25.83716 -80.15834 5580 ft 273 kts
2026-05-06 02:53 25.85634 -80.15769 6457 ft 276 kts 359°
2026-05-06 02:53 25.87571 -80.15739 7273 ft 279 kts 359°
2026-05-06 02:53 25.89518 -80.15767 8116 ft 280 kts 349°
2026-05-06 02:54 25.91383 -80.16343 8946 ft 280 kts 339°
2026-05-06 02:54 25.93252 -80.17035 9789 ft 283 kts 339°
2026-05-06 02:54 25.95143 -80.17716 10452 ft 292 kts 340°
2026-05-06 02:54 25.97145 -80.18426 10618 ft 317 kts 340°
2026-05-06 02:55 25.99201 -80.19396 10960 ft 330 kts 324°
2026-05-06 02:55 26.01002 -80.21035 11624 ft 333 kts 317°
2026-05-06 02:55 26.02723 -80.22761 12352 ft 336 kts 317°
2026-05-06 02:55 26.04459 -80.24522 13087 ft 339 kts 317°
2026-05-06 02:56 26.06218 -80.26299 13822 ft 343 kts 317°
2026-05-06 02:56 26.07997 -80.28085 14499 ft 346 kts 317°
2026-05-06 02:56 26.09794 -80.29881 15188 ft 349 kts 317°
2026-05-06 02:56 26.11608 -80.31689 15887 ft 352 kts 317°
2026-05-06 02:57 26.13427 -80.33500 16596 ft 355 kts 317°
2026-05-06 02:57 26.15290 -80.35353 17282 ft 358 kts 317°
2026-05-06 02:57 26.17156 -80.37209 17958 ft 362 kts 317°
2026-05-06 02:57 26.19050 -80.39095 18585 ft 365 kts 317°
2026-05-06 02:58 26.20935 -80.40971 19303 ft 362 kts 317°
2026-05-06 02:58 26.22824 -80.42779 19723 ft 360 kts 323°
2026-05-06 02:58 26.25001 -80.44127 19987 ft 360 kts 332°
2026-05-06 02:58 26.27278 -80.45315 19993 ft 361 kts 333°
2026-05-06 02:59 26.29546 -80.46478 20003 ft 359 kts 333°
2026-05-06 02:59 26.31815 -80.47648 20001 ft 358 kts 333°
2026-05-06 02:59 26.34075 -80.48828 20004 ft 358 kts 333°
2026-05-06 02:59 26.36317 -80.50011 20008 ft 357 kts 333°
2026-05-06 03:00 26.38566 -80.51204 20004 ft 357 kts 333°
2026-05-06 03:00 26.40810 -80.52397 20005 ft 357 kts 333°
2026-05-06 03:00 26.43051 -80.53591 20005 ft 357 kts 333°
2026-05-06 03:00 26.45294 -80.54786 20000 ft 357 kts 333°
2026-05-06 03:01 26.47539 -80.55982 20006 ft 357 kts 333°
2026-05-06 03:01 26.49833 -80.57051 19998 ft 358 kts 339°
2026-05-06 03:01 26.52187 -80.57855 20012 ft 359 kts 342°
2026-05-06 03:01 26.54609 -80.58581 20007 ft 360 kts 342°
2026-05-06 03:02 26.57032 -80.59292 20003 ft 360 kts 342°
2026-05-06 03:02 26.59437 -80.60010 20006 ft 359 kts 342°
2026-05-06 03:02 26.61858 -80.60749 20006 ft 359 kts 342°
2026-05-06 03:02 26.64263 -80.61497 20008 ft 359 kts 342°
2026-05-06 03:03 26.66673 -80.62255 20006 ft 359 kts 342°
2026-05-06 03:03 26.69077 -80.63016 20007 ft 359 kts 341°
2026-05-06 03:03 26.71477 -80.63779 20002 ft 359 kts 341°
2026-05-06 03:03 26.73875 -80.64543 20003 ft 359 kts 341°
2026-05-06 03:04 26.76280 -80.65309 20003 ft 358 kts 341°
2026-05-06 03:04 26.78613 -80.66051 19994 ft 347 kts 341°
2026-05-06 03:04 26.80912 -80.66783 19838 ft 340 kts 341°
2026-05-06 03:04 26.83176 -80.67506 19609 ft 337 kts 341°
2026-05-06 03:05 26.85436 -80.68228 19383 ft 338 kts 341°
2026-05-06 03:05 26.87604 -80.68921 19172 ft 338 kts 341°
2026-05-06 03:05 26.89962 -80.69674 18941 ft 338 kts 341°
2026-05-06 03:05 26.92219 -80.70413 18713 ft 338 kts 340°
2026-05-06 03:06 26.94453 -80.71233 18494 ft 337 kts 339°
2026-05-06 03:06 26.96677 -80.72085 18266 ft 337 kts 339°
2026-05-06 03:06 26.98891 -80.72939 18006 ft 337 kts 339°
2026-05-06 03:06 27.01107 -80.73791 17750 ft 336 kts 339°
2026-05-06 03:07 27.03288 -80.74625 17489 ft 335 kts 339°
2026-05-06 03:07 27.05492 -80.75464 17261 ft 334 kts 339°
2026-05-06 03:07 27.07688 -80.76298 17006 ft 333 kts 339°
2026-05-06 03:07 27.09877 -80.77128 16753 ft 331 kts 339°
2026-05-06 03:08 27.12058 -80.77954 16515 ft 330 kts 339°
2026-05-06 03:08 27.14226 -80.78776 16270 ft 328 kts 339°
2026-05-06 03:08 27.16389 -80.79596 16031 ft 327 kts 339°
2026-05-06 03:08 27.18541 -80.80412 15792 ft 326 kts 340°
2026-05-06 03:09 27.20688 -80.81226 15557 ft 325 kts 340°
2026-05-06 03:09 27.22826 -80.82038 15321 ft 324 kts 340°
2026-05-06 03:09 27.24958 -80.82847 15084 ft 323 kts 340°
2026-05-06 03:09 27.27081 -80.83653 14851 ft 322 kts 340°
2026-05-06 03:10 27.29173 -80.84448 14621 ft 321 kts 340°
2026-05-06 03:10 27.31284 -80.85250 14388 ft 320 kts 340°
2026-05-06 03:10 27.33402 -80.86012 14168 ft 320 kts 342°
2026-05-06 03:10 27.35548 -80.86671 13950 ft 319 kts 344°
2026-05-06 03:11 27.37700 -80.87296 13694 ft 319 kts 344°
2026-05-06 03:11 27.39845 -80.87914 13438 ft 317 kts 344°
2026-05-06 03:11 27.41977 -80.88532 13188 ft 316 kts 344°
2026-05-06 03:11 27.44110 -80.89155 12932 ft 315 kts 344°
2026-05-06 03:12 27.46223 -80.89777 12675 ft 313 kts 344°
2026-05-06 03:12 27.48330 -80.90399 12424 ft 311 kts 344°
2026-05-06 03:12 27.50398 -80.91013 12205 ft 310 kts 344°
2026-05-06 03:12 27.52477 -80.91631 11952 ft 308 kts 344°
2026-05-06 03:13 27.54547 -80.92247 11704 ft 306 kts 344°
2026-05-06 03:13 27.56604 -80.92860 11469 ft 305 kts 344°
2026-05-06 03:13 27.58647 -80.93469 11229 ft 303 kts 344°
2026-05-06 03:13 27.60685 -80.94077 10993 ft 302 kts 344°
2026-05-06 03:14 27.62716 -80.94683 10762 ft 301 kts 345°
2026-05-06 03:14 27.64738 -80.95287 10525 ft 300 kts 345°
2026-05-06 03:14 27.66752 -80.95889 10299 ft 299 kts 345°
2026-05-06 03:14 27.68755 -80.96488 10066 ft 298 kts 345°
2026-05-06 03:15 27.70727 -80.97077 9832 ft 297 kts 345°
2026-05-06 03:15 27.72713 -80.97671 9564 ft 292 kts 345°
2026-05-06 03:15 27.74617 -80.98240 9309 ft 286 kts 345°
2026-05-06 03:15 27.76564 -80.98823 9046 ft 280 kts 345°
2026-05-06 03:16 27.78422 -80.99379 8785 ft 272 kts 344°
2026-05-06 03:16 27.80225 -80.99919 8540 ft 266 kts 344°
2026-05-06 03:16 27.81437 -81.00282 8357 ft 267 kts 344°
2026-05-06 03:16 27.83229 -81.00820 8148 ft 273 kts 344°
2026-05-06 03:17 27.85090 -81.01378 7900 ft 277 kts 344°
2026-05-06 03:17 27.86947 -81.01935 7656 ft 273 kts 343°
2026-05-06 03:17 27.88751 -81.02476 7419 ft 270 kts 343°
2026-05-06 03:17 27.90550 -81.03015 7165 ft 263 kts 343°
2026-05-06 03:18 27.92302 -81.03541 6928 ft 259 kts 343°
2026-05-06 03:18 27.94050 -81.04099 6691 ft 260 kts 339°
2026-05-06 03:18 27.95755 -81.04796 6462 ft 260 kts 337°
2026-05-06 03:18 27.97433 -81.05525 6218 ft 261 kts 337°
2026-05-06 03:19 27.99065 -81.06234 6039 ft 262 kts 337°
2026-05-06 03:19 28.00778 -81.06973 5995 ft 263 kts 338°
2026-05-06 03:19 28.02485 -81.07702 5974 ft 262 kts 338°
2026-05-06 03:19 28.04192 -81.08427 5986 ft 262 kts 338°
2026-05-06 03:20 28.07621 -81.09881 5979 ft 263 kts 338°
2026-05-06 03:20 28.09335 -81.10602 5976 ft 260 kts 338°
2026-05-06 03:20 28.10988 -81.11292 5970 ft 251 kts 338°
2026-05-06 03:21 28.12596 -81.11962 5970 ft 241 kts 338°
2026-05-06 03:21 28.14150 -81.12611 5966 ft 232 kts 338°
2026-05-06 03:21 28.15607 -81.13306 5971 ft 222 kts 323°
2026-05-06 03:21 28.16571 -81.14612 5998 ft 218 kts 292°
2026-05-06 03:22 28.16867 -81.16280 6005 ft 216 kts 270°
2026-05-06 03:22 28.16794 -81.17955 6001 ft 215 kts 265°
2026-05-06 03:22 28.16673 -81.19641 5994 ft 214 kts 265°
2026-05-06 03:22 28.16555 -81.21331 5995 ft 214 kts 266°
2026-05-06 03:23 28.16445 -81.23006 5997 ft 213 kts 266°
2026-05-06 03:23 28.16338 -81.24682 6000 ft 212 kts 265°
2026-05-06 03:23 28.16469 -81.26189 5982 ft 211 kts 295°
2026-05-06 03:23 28.17528 -81.27365 6009 ft 216 kts 338°
2026-05-06 03:24 28.19021 -81.27707 5941 ft 221 kts 349°
2026-05-06 03:24 28.20567 -81.27929 5601 ft 227 kts 353°
2026-05-06 03:24 28.22102 -81.28023 5321 ft 229 kts 357°
2026-05-06 03:24 28.23745 -81.28052 5072 ft 229 kts 358°
2026-05-06 03:25 28.25333 -81.28065 4864 ft 227 kts 358°
2026-05-06 03:25 28.26882 -81.28078 4765 ft 220 kts 358°
2026-05-06 03:25 28.28366 -81.28093 4692 ft 207 kts 358°
2026-05-06 03:25 28.29763 -81.28107 4531 ft 194 kts 358°
2026-05-06 03:26 28.31134 -81.28122 3902 ft 206 kts 359°
2026-05-06 03:26 28.32550 -81.28137 3690 ft 195 kts 359°
2026-05-06 03:26 28.33842 -81.28150 3572 ft 180 kts 359°
2026-05-06 03:26 28.35064 -81.28139 3332 ft 174 kts
2026-05-06 03:27 28.36161 -81.27518 2745 ft 186 kts 52°
2026-05-06 03:27 28.36672 -81.26163 2181 ft 195 kts 86°
2026-05-06 03:27 28.36774 -81.24631 2040 ft 193 kts 87°
2026-05-06 03:27 28.36884 -81.23117 2015 ft 193 kts 87°
2026-05-06 03:28 28.36996 -81.21601 2011 ft 197 kts 87°
2026-05-06 03:28 28.37110 -81.20033 2008 ft 199 kts 88°
2026-05-06 03:28 28.36877 -81.18524 1993 ft 195 kts 120°
2026-05-06 03:28 28.35886 -81.17504 1999 ft 198 kts 155°
2026-05-06 03:29 28.34584 -81.17044 2002 ft 191 kts 163°
2026-05-06 03:29 28.33295 -81.16943 2001 ft 179 kts 178°
2026-05-06 03:29 28.32095 -81.16993 1982 ft 167 kts 178°
2026-05-06 03:29 28.30955 -81.17037 1985 ft 164 kts 178°
2026-05-06 03:30 28.29819 -81.17085 1985 ft 165 kts 178°
2026-05-06 03:30 28.28666 -81.17132 2004 ft 166 kts 178°
2026-05-06 03:30 28.27498 -81.17180 1992 ft 168 kts 179°
2026-05-06 03:30 28.26400 -81.17641 1979 ft 175 kts 219°
2026-05-06 03:31 28.25839 -81.18861 1994 ft 180 kts 262°
2026-05-06 03:31 28.25908 -81.20264 2007 ft 181 kts 273°
2026-05-06 03:31 28.26015 -81.21691 1995 ft 182 kts 273°
2026-05-06 03:31 28.26121 -81.23132 2009 ft 183 kts 273°
2026-05-06 03:32 28.26261 -81.24575 2001 ft 185 kts 277°
2026-05-06 03:32 28.26475 -81.26016 2006 ft 185 kts 280°
2026-05-06 03:32 28.27090 -81.27262 1988 ft 182 kts 328°
2026-05-06 03:32 28.28237 -81.27694 2036 ft 176 kts 352°
2026-05-06 03:33 28.29453 -81.27912 2017 ft 177 kts 356°
2026-05-06 03:33 28.30683 -81.28072 1993 ft 177 kts 359°
2026-05-06 03:33 28.31941 -81.28130 1723 ft 186 kts
2026-05-06 03:33 28.33178 -81.28146 1671 ft 168 kts
2026-05-06 03:34 28.34302 -81.28157 1553 ft 156 kts
2026-05-06 03:34 28.35370 -81.28166 1374 ft 154 kts
2026-05-06 03:34 28.36473 -81.28176 1190 ft 164 kts
2026-05-06 03:34 28.37602 -81.28188 967 ft 160 kts
2026-05-06 03:35 28.38346 -81.28199 880 ft 161 kts
2026-05-06 03:35 28.38784 -81.28206 814 ft 162 kts
2026-05-06 03:35 28.39937 -81.28214 551 ft 161 kts
2026-05-06 03:35 28.41027 -81.28228 326 ft 158 kts
2026-05-06 03:36 28.42134 -81.28241 113 ft 158 kts
2026-05-06 03:36 28.43128 -81.28246 99 ft 124 kts 359°
2026-05-06 03:36 28.43634 -81.28251 103 ft 37 kts 359°
2026-05-06 03:36 28.43819 -81.28287 106 ft 18 kts 330°
2026-05-06 03:37 28.43869 -81.28358 107 ft 10 kts 291°
2026-05-06 03:37 28.43875 -81.28435 106 ft 10 kts 267°
2026-05-06 03:37 28.43873 -81.28514 106 ft 10 kts 269°
2026-05-06 03:37 28.43872 -81.28594 106 ft 10 kts 269°
2026-05-06 03:38 28.43872 -81.28672 106 ft 10 kts 270°
2026-05-06 03:38 28.43872 -81.28753 105 ft 12 kts 269°
2026-05-06 03:38 28.43871 -81.28852 106 ft 14 kts 269°
2026-05-06 03:38 28.43870 -81.28981 106 ft 18 kts 270°
2026-05-06 03:39 28.43868 -81.29138 99 ft 19 kts 269°
2026-05-06 03:39 28.43849 -81.29256 98 ft 14 kts 218°
2026-05-06 03:39 28.43751 -81.29263 101 ft 15 kts 179°
2026-05-06 03:39 28.43634 -81.29261 102 ft 18 kts 179°
2026-05-06 03:40 28.43555 -81.29295 103 ft 10 kts 249°
2026-05-06 03:40 28.43553 -81.29384 105 ft 12 kts 270°
2026-05-06 03:40 28.43551 -81.29495 105 ft 16 kts 269°
2026-05-06 03:40 28.43549 -81.29643 102 ft 21 kts 269°
2026-05-06 03:41 28.43549 -81.29786 103 ft 14 kts 270°
2026-05-06 03:41 28.43539 -81.29872 101 ft 9 kts 235°
2026-05-06 03:41 28.43514 -81.29889 100 ft 3 kts 197°
2026-05-06 03:41 28.43495 -81.29896 100 ft 3 kts 201°
2026-05-06 03:42 28.43474 -81.29917 100 ft 5 kts 243°
2026-05-06 03:42 28.43473 -81.29962 100 ft 7 kts 274°
2026-05-06 03:42 28.43473 -81.30000 100 ft 3 kts 269°
2026-05-06 03:42 28.43473 -81.30019 100 ft 0 kts 269°